AAL51 EGKK-KDFW

Flight info

Callsign AAL51
Flight time N/A
Altitude 30000
Route NOVMA L620 SAM N19 ADKIK DCT PEWBI DCT MOPAT DCT RESNO/M083F320 DCT 56N020W 56N030W 56N040W 55N050W DCT LOMSI/N0490F340 N668A TAFFY DCT PQI DCT CABCI Q29 NIPPY/N0469F360 DCT WILET DCT REBBL DCT LEJOY DCT EMNEM Q71 GEFFS DCT TONIO DCT ARTUR DCT NIOLA DCT VLKNN Q30 IZAAC DCT YUYUN BEREE3
Aircraft MD11/H-SDE1E2E3FGHIJ2J3J4J5M1RWXY/LB1D1

Departure

Time N/A
Airport London Gatwick Airport (EGKK)

Arrival

Time 2026-05-05 05:02
Airport Dallas Fort Worth International Airport (KDFW)
Time Latitude Longitude Altitude Speed Heading
2026-05-05 00:53 49.53236 -63.80259 31502 ft 499 kts 230°
2026-05-05 00:54 49.48631 -63.88287 31511 ft 498 kts 230°
2026-05-05 00:54 49.44049 -63.96282 31531 ft 498 kts 230°
2026-05-05 00:55 49.39473 -64.04273 31538 ft 499 kts 230°
2026-05-05 00:55 49.34866 -64.12217 31543 ft 500 kts 229°
2026-05-05 00:56 49.30135 -64.20016 31542 ft 500 kts 229°
2026-05-05 00:56 49.25435 -64.27818 31549 ft 500 kts 229°
2026-05-05 00:57 49.20726 -64.35671 31563 ft 499 kts 230°
2026-05-05 00:57 49.16050 -64.43488 31556 ft 499 kts 230°
2026-05-05 00:58 49.11367 -64.51321 31568 ft 499 kts 230°
2026-05-05 00:58 49.06720 -64.59103 31569 ft 499 kts 230°
2026-05-05 00:59 49.02031 -64.66966 31582 ft 500 kts 229°
2026-05-05 00:59 48.97371 -64.74789 31575 ft 500 kts 229°
2026-05-05 01:00 48.92696 -64.82637 31570 ft 500 kts 230°
2026-05-05 01:00 48.88045 -64.90466 31564 ft 500 kts 230°
2026-05-05 01:01 48.83387 -64.98326 31557 ft 500 kts 230°
2026-05-05 01:01 48.78675 -65.06155 31574 ft 501 kts 229°
2026-05-05 01:02 48.73886 -65.13825 31798 ft 501 kts 229°
2026-05-05 01:02 48.71532 -65.17654 32137 ft 498 kts 229°
2026-05-05 01:02 48.69148 -65.21461 32328 ft 501 kts 229°
2026-05-05 01:02 48.66754 -65.25274 32595 ft 500 kts 229°
2026-05-05 01:03 48.64364 -65.29105 32871 ft 499 kts 229°
2026-05-05 01:03 48.61993 -65.32922 33096 ft 500 kts 230°
2026-05-05 01:03 48.59633 -65.36725 33322 ft 500 kts 230°
2026-05-05 01:03 48.57279 -65.40527 33540 ft 500 kts 230°
2026-05-05 01:04 48.54911 -65.44354 33576 ft 503 kts 230°
2026-05-05 01:04 48.47797 -65.55858 33617 ft 501 kts 230°
2026-05-05 01:05 48.43071 -65.63517 33633 ft 499 kts 230°
2026-05-05 01:05 48.38345 -65.71165 33639 ft 500 kts 230°
2026-05-05 01:06 48.33628 -65.78825 33646 ft 500 kts 230°
2026-05-05 01:06 48.28954 -65.86430 33636 ft 500 kts 230°
2026-05-05 01:07 48.24264 -65.94064 33636 ft 499 kts 230°
2026-05-05 01:07 48.19451 -66.01527 33645 ft 500 kts 229°
2026-05-05 01:08 48.14610 -66.09033 33665 ft 500 kts 229°
2026-05-05 01:08 48.09792 -66.16489 33668 ft 499 kts 229°
2026-05-05 01:09 48.05014 -66.23946 33676 ft 499 kts 230°
2026-05-05 01:09 48.00231 -66.31406 33686 ft 499 kts 230°
2026-05-05 01:10 47.95443 -66.38844 33693 ft 499 kts 230°
2026-05-05 01:10 47.90679 -66.46275 33669 ft 498 kts 230°
2026-05-05 01:11 47.85908 -66.53728 33670 ft 498 kts 230°
2026-05-05 01:11 47.81107 -66.61234 33688 ft 497 kts 231°
2026-05-05 01:12 47.76332 -66.68709 33688 ft 497 kts 230°
2026-05-05 01:12 47.71612 -66.76104 33689 ft 497 kts 230°
2026-05-05 01:13 47.66852 -66.83574 33697 ft 497 kts 231°
2026-05-05 01:13 47.62051 -66.90891 33698 ft 496 kts 230°
2026-05-05 01:14 47.57254 -66.98153 33706 ft 494 kts 230°
2026-05-05 01:14 47.52468 -67.05436 33710 ft 493 kts 230°
2026-05-05 01:15 47.47723 -67.12669 33726 ft 493 kts 231°
2026-05-05 01:15 47.42929 -67.19979 33731 ft 492 kts 231°
2026-05-05 01:16 47.38356 -67.27412 33745 ft 488 kts 237°
2026-05-05 01:16 47.33931 -67.35020 33750 ft 493 kts 230°
2026-05-05 01:17 47.28843 -67.41854 33744 ft 495 kts 227°
2026-05-05 01:17 47.23685 -67.48570 33753 ft 494 kts 227°
2026-05-05 01:18 47.18544 -67.55281 33748 ft 493 kts 228°
2026-05-05 01:18 47.13451 -67.61969 33746 ft 492 kts 228°
2026-05-05 01:19 47.08361 -67.68707 33765 ft 493 kts 228°
2026-05-05 01:19 47.03273 -67.75371 33745 ft 492 kts 227°
2026-05-05 01:20 46.98177 -67.82036 33767 ft 490 kts 228°
2026-05-05 01:20 46.93119 -67.88689 33770 ft 490 kts 228°
2026-05-05 01:21 46.88051 -67.95361 33799 ft 489 kts 229°
2026-05-05 01:21 46.82998 -68.02023 33773 ft 488 kts 229°
2026-05-05 01:22 46.78129 -68.08855 33783 ft 483 kts 234°
2026-05-05 01:22 46.74041 -68.16081 33799 ft 477 kts 240°
2026-05-05 01:23 46.70077 -68.23826 33791 ft 478 kts 240°
2026-05-05 01:23 46.66107 -68.31522 33800 ft 476 kts 240°
2026-05-05 01:24 46.62167 -68.39204 33813 ft 474 kts 241°
2026-05-05 01:24 46.58230 -68.46883 33796 ft 473 kts 241°
2026-05-05 01:25 46.54297 -68.54512 33806 ft 472 kts 241°
2026-05-05 01:25 46.50352 -68.62151 33797 ft 472 kts 241°
2026-05-05 01:26 46.46427 -68.69785 33807 ft 473 kts 241°
2026-05-05 01:26 46.42497 -68.77411 33779 ft 473 kts 241°
2026-05-05 01:27 46.38571 -68.85048 33800 ft 473 kts 241°
2026-05-05 01:27 46.34662 -68.92640 33779 ft 471 kts 242°
2026-05-05 01:28 46.30760 -69.00289 33787 ft 473 kts 241°
2026-05-05 01:28 46.26815 -69.07884 33783 ft 472 kts 241°
2026-05-05 01:29 46.23175 -69.14967 33770 ft 470 kts 241°
2026-05-05 01:29 46.19179 -69.22452 33781 ft 472 kts 240°
2026-05-05 01:30 46.15199 -69.29908 33786 ft 470 kts 241°
2026-05-05 01:30 46.11162 -69.37358 33774 ft 471 kts 240°
2026-05-05 01:31 46.07179 -69.44730 33776 ft 469 kts 241°
2026-05-05 01:31 46.03211 -69.52145 33791 ft 469 kts 241°
2026-05-05 01:32 45.99267 -69.59569 33789 ft 468 kts 241°
2026-05-05 01:32 45.95314 -69.66982 33787 ft 468 kts 240°
2026-05-05 01:33 45.91348 -69.74402 33778 ft 469 kts 240°
2026-05-05 01:33 45.87385 -69.81847 33777 ft 469 kts 240°
2026-05-05 01:34 45.83447 -69.89256 33774 ft 468 kts 240°
2026-05-05 01:34 45.79510 -69.96674 33781 ft 469 kts 240°
2026-05-05 01:35 45.75577 -70.04108 33765 ft 470 kts 240°
2026-05-05 01:35 45.71639 -70.11513 33761 ft 470 kts 239°
2026-05-05 01:36 45.67545 -70.18857 33769 ft 471 kts 239°
2026-05-05 01:36 45.64600 -70.24149 33773 ft 471 kts 239°
2026-05-05 01:37 45.60522 -70.31519 33783 ft 473 kts 239°
2026-05-05 01:37 45.56472 -70.38858 33784 ft 472 kts 239°
2026-05-05 01:38 45.52388 -70.46254 33769 ft 472 kts 240°
2026-05-05 01:38 45.48349 -70.53588 33770 ft 472 kts 240°
2026-05-05 01:39 45.44320 -70.60943 33773 ft 472 kts 239°
2026-05-05 01:39 45.40264 -70.68279 33779 ft 473 kts 239°
2026-05-05 01:40 45.36223 -70.75618 33777 ft 475 kts 239°
2026-05-05 01:40 45.32152 -70.82980 33768 ft 475 kts 239°
2026-05-05 01:41 45.28057 -70.90388 33782 ft 474 kts 239°
2026-05-05 01:41 45.23992 -70.97783 33785 ft 473 kts 239°
2026-05-05 01:42 45.19919 -71.05164 33786 ft 475 kts 238°
2026-05-05 01:42 45.15751 -71.12431 33766 ft 475 kts 238°
2026-05-05 01:43 45.11620 -71.19665 33788 ft 473 kts 238°
2026-05-05 01:43 45.07505 -71.26897 33794 ft 473 kts 238°
2026-05-05 01:44 45.03369 -71.34176 33785 ft 474 kts 239°
2026-05-05 01:44 44.99278 -71.41391 33777 ft 473 kts 238°
2026-05-05 01:45 44.95167 -71.48636 33772 ft 472 kts 239°
2026-05-05 01:45 44.91053 -71.55910 33774 ft 473 kts 239°
2026-05-05 01:46 44.86962 -71.63146 33788 ft 472 kts 239°
2026-05-05 01:46 44.82871 -71.70383 33778 ft 472 kts 238°
2026-05-05 01:47 44.78997 -71.77823 33778 ft 469 kts 243°
2026-05-05 01:47 44.75334 -71.85396 33775 ft 470 kts 242°
2026-05-05 01:48 44.71616 -71.92948 33785 ft 471 kts 242°
2026-05-05 01:48 44.67871 -72.00525 33789 ft 470 kts 242°
2026-05-05 01:49 44.64154 -72.08054 33803 ft 470 kts 242°
2026-05-05 01:49 44.60451 -72.15567 33805 ft 470 kts 242°
2026-05-05 01:50 44.56743 -72.23100 33801 ft 469 kts 242°
2026-05-05 01:50 44.53043 -72.30625 33791 ft 469 kts 242°
2026-05-05 01:51 44.49369 -72.38110 33790 ft 470 kts 242°
2026-05-05 01:51 44.45683 -72.45628 33795 ft 468 kts 243°
2026-05-05 01:52 44.42007 -72.53141 33794 ft 468 kts 243°
2026-05-05 01:52 44.38327 -72.60665 33773 ft 468 kts 242°
2026-05-05 01:53 44.34673 -72.68149 33792 ft 468 kts 242°
2026-05-05 01:53 44.30866 -72.75609 33790 ft 471 kts 240°
2026-05-05 01:54 44.27061 -72.83006 33776 ft 469 kts 241°
2026-05-05 01:54 44.23272 -72.90407 33792 ft 470 kts 241°
2026-05-05 01:55 44.19498 -72.97797 33788 ft 470 kts 241°
2026-05-05 01:55 44.15712 -73.05222 33789 ft 470 kts 241°
2026-05-05 01:56 44.11933 -73.12641 33782 ft 470 kts 241°
2026-05-05 01:56 44.08163 -73.20055 33798 ft 470 kts 241°
2026-05-05 01:57 44.04366 -73.27531 33805 ft 469 kts 241°
2026-05-05 01:57 44.00630 -73.34895 33795 ft 470 kts 241°
2026-05-05 01:58 43.96853 -73.42355 33796 ft 470 kts 241°
2026-05-05 01:58 43.93123 -73.49722 33799 ft 469 kts 241°
2026-05-05 01:59 43.89368 -73.57154 33788 ft 469 kts 241°
2026-05-05 01:59 43.85608 -73.64586 33792 ft 469 kts 240°
2026-05-05 02:00 43.81790 -73.71896 33793 ft 470 kts 240°
2026-05-05 02:00 43.77994 -73.79182 33807 ft 470 kts 240°
2026-05-05 02:01 43.74175 -73.86540 33798 ft 470 kts 240°
2026-05-05 02:01 43.70385 -73.93894 33793 ft 470 kts 241°
2026-05-05 02:02 43.66570 -74.01146 33799 ft 474 kts 237°
2026-05-05 02:02 43.62425 -74.08221 33800 ft 475 kts 237°
2026-05-05 02:03 43.58266 -74.15323 33809 ft 474 kts 237°
2026-05-05 02:03 43.54171 -74.22337 33799 ft 473 kts 237°
2026-05-05 02:04 43.50064 -74.29378 33812 ft 473 kts 237°
2026-05-05 02:04 43.45942 -74.36462 33817 ft 473 kts 237°
2026-05-05 02:05 43.41828 -74.43530 33810 ft 473 kts 237°
2026-05-05 02:05 43.37732 -74.50577 33804 ft 473 kts 237°
2026-05-05 02:06 43.33639 -74.57631 33800 ft 472 kts 237°
2026-05-05 02:06 43.29560 -74.64668 33797 ft 472 kts 237°
2026-05-05 02:07 43.25471 -74.71721 33798 ft 472 kts 237°
2026-05-05 02:07 43.21395 -74.78767 33806 ft 472 kts 237°
2026-05-05 02:08 43.17339 -74.85789 33799 ft 472 kts 237°
2026-05-05 02:08 43.13256 -74.92854 33794 ft 474 kts 236°
2026-05-05 02:09 43.09057 -74.99833 33786 ft 474 kts 235°
2026-05-05 02:09 43.04881 -75.06740 33786 ft 475 kts 236°
2026-05-05 02:10 43.00683 -75.13712 33777 ft 475 kts 236°
2026-05-05 02:10 42.96501 -75.20670 33779 ft 475 kts 236°
2026-05-05 02:11 42.92313 -75.27651 33787 ft 474 kts 236°
2026-05-05 02:11 42.88149 -75.34602 33795 ft 474 kts 236°
2026-05-05 02:12 42.81892 -75.45053 33782 ft 474 kts 236°
2026-05-05 02:13 42.77746 -75.51990 33790 ft 474 kts 236°
2026-05-05 02:13 42.73604 -75.58926 33808 ft 475 kts 236°
2026-05-05 02:14 42.69436 -75.65916 33799 ft 476 kts 235°
2026-05-05 02:14 42.65275 -75.72900 33798 ft 477 kts 235°
2026-05-05 02:15 42.61108 -75.79897 33805 ft 477 kts 235°
2026-05-05 02:15 42.56900 -75.86904 33802 ft 477 kts 236°
2026-05-05 02:16 42.52681 -75.93887 33820 ft 480 kts 233°
2026-05-05 02:16 42.48262 -76.00645 33812 ft 480 kts 233°
2026-05-05 02:17 42.43838 -76.07423 33807 ft 480 kts 233°
2026-05-05 02:17 42.39405 -76.14241 33807 ft 479 kts 233°
2026-05-05 02:18 42.35028 -76.20975 33803 ft 479 kts 233°
2026-05-05 02:18 42.30620 -76.27768 33814 ft 478 kts 233°
2026-05-05 02:19 42.26231 -76.34532 33809 ft 478 kts 233°
2026-05-05 02:19 42.21859 -76.41280 33793 ft 479 kts 233°
2026-05-05 02:20 42.17480 -76.48049 33790 ft 479 kts 233°
2026-05-05 02:20 42.13086 -76.54839 33797 ft 479 kts 233°
2026-05-05 02:21 42.08720 -76.61597 33793 ft 477 kts 233°
2026-05-05 02:21 42.04360 -76.68352 33796 ft 477 kts 233°
2026-05-05 02:22 42.00008 -76.75098 33799 ft 478 kts 233°
2026-05-05 02:22 41.95609 -76.81874 33810 ft 479 kts 232°
2026-05-05 02:23 41.91181 -76.88577 33800 ft 479 kts 233°
2026-05-05 02:23 41.86804 -76.95323 33796 ft 480 kts 231°
2026-05-05 02:24 41.82081 -77.01786 33801 ft 481 kts 229°
2026-05-05 02:24 41.77389 -77.08105 33814 ft 481 kts 229°
2026-05-05 02:25 41.72839 -77.14719 33826 ft 478 kts 237°
2026-05-05 02:25 41.70985 -77.18394 34001 ft 476 kts 243°
2026-05-05 02:25 41.69336 -77.22160 34487 ft 473 kts 243°
2026-05-05 02:25 41.67616 -77.25928 34791 ft 474 kts 242°
2026-05-05 02:26 41.65814 -77.29649 35107 ft 473 kts 240°
2026-05-05 02:26 41.63987 -77.33293 35414 ft 472 kts 240°
2026-05-05 02:26 41.62113 -77.36968 35715 ft 471 kts 239°
2026-05-05 02:27 41.58386 -77.44189 35810 ft 472 kts 239°
2026-05-05 02:27 41.54663 -77.51363 35823 ft 470 kts 239°
2026-05-05 02:28 41.50949 -77.58527 35827 ft 469 kts 239°
2026-05-05 02:28 41.47249 -77.65673 35821 ft 469 kts 239°
2026-05-05 02:29 41.43545 -77.72838 35819 ft 469 kts 239°
2026-05-05 02:29 41.39837 -77.80018 35827 ft 470 kts 239°
2026-05-05 02:30 41.36156 -77.87154 35824 ft 470 kts 239°
2026-05-05 02:30 41.32453 -77.94336 35826 ft 469 kts 239°
2026-05-05 02:31 41.28772 -78.01495 35833 ft 469 kts 239°
2026-05-05 02:31 41.25074 -78.08642 35824 ft 470 kts 238°
2026-05-05 02:32 41.21244 -78.15736 35824 ft 471 kts 238°
2026-05-05 02:32 41.17438 -78.22812 35840 ft 472 kts 238°
2026-05-05 02:33 41.13640 -78.29896 35827 ft 471 kts 238°
2026-05-05 02:33 41.09872 -78.36938 35845 ft 470 kts 238°
2026-05-05 02:34 41.06097 -78.44001 35853 ft 470 kts 238°
2026-05-05 02:34 41.02313 -78.51093 35857 ft 470 kts 238°
2026-05-05 02:35 40.98549 -78.58158 35834 ft 470 kts 238°
2026-05-05 02:35 40.94785 -78.65226 35833 ft 470 kts 238°
2026-05-05 02:36 40.91032 -78.72282 35835 ft 470 kts 238°
2026-05-05 02:36 40.87253 -78.79395 35827 ft 471 kts 238°
2026-05-05 02:37 40.83518 -78.86432 35830 ft 470 kts 238°
2026-05-05 02:37 40.79773 -78.93497 35845 ft 470 kts 238°
2026-05-05 02:38 40.75966 -79.00557 35853 ft 470 kts 237°
2026-05-05 02:38 40.72123 -79.07473 35850 ft 469 kts 237°
2026-05-05 02:39 40.68264 -79.14455 35851 ft 469 kts 237°
2026-05-05 02:39 40.64436 -79.21397 35849 ft 470 kts 237°
2026-05-05 02:40 40.60605 -79.28357 35842 ft 470 kts 237°
2026-05-05 02:40 40.56788 -79.35300 35851 ft 471 kts 237°
2026-05-05 02:41 40.52948 -79.42293 35852 ft 470 kts 237°
2026-05-05 02:41 40.49118 -79.49277 35846 ft 470 kts 237°
2026-05-05 02:42 40.45298 -79.56245 35848 ft 470 kts 237°
2026-05-05 02:42 40.41508 -79.63170 35850 ft 470 kts 237°
2026-05-05 02:43 40.37689 -79.70158 35843 ft 470 kts 237°
2026-05-05 02:43 40.33899 -79.77098 35859 ft 470 kts 237°
2026-05-05 02:44 40.30082 -79.84099 35845 ft 470 kts 237°
2026-05-05 02:44 40.26214 -79.90981 35830 ft 471 kts 236°
2026-05-05 02:45 40.22293 -79.97850 35829 ft 470 kts 236°
2026-05-05 02:45 40.18403 -80.04697 35850 ft 470 kts 236°
2026-05-05 02:46 40.14519 -80.11552 35862 ft 470 kts 236°
2026-05-05 02:46 40.10625 -80.18433 35861 ft 470 kts 236°
2026-05-05 02:47 40.06774 -80.25249 35852 ft 469 kts 236°
2026-05-05 02:47 40.02916 -80.32083 35853 ft 470 kts 236°
2026-05-05 02:48 39.99031 -80.38969 35850 ft 470 kts 236°
2026-05-05 02:48 39.95178 -80.45807 35851 ft 471 kts 236°
2026-05-05 02:49 39.91316 -80.52668 35847 ft 471 kts 236°
2026-05-05 02:49 39.87444 -80.59553 35862 ft 471 kts 236°
2026-05-05 02:50 39.83610 -80.66384 35860 ft 470 kts 236°
2026-05-05 02:50 39.79761 -80.73238 35856 ft 471 kts 235°
2026-05-05 02:51 39.76037 -80.79615 35853 ft 472 kts 234°
2026-05-05 02:51 39.72071 -80.86385 35857 ft 471 kts 235°
2026-05-05 02:52 39.68137 -80.93128 35859 ft 471 kts 235°
2026-05-05 02:52 39.64179 -80.99925 35867 ft 471 kts 235°
2026-05-05 02:53 39.60248 -81.06689 35865 ft 472 kts 235°
2026-05-05 02:53 39.56312 -81.13467 35865 ft 472 kts 235°
2026-05-05 02:54 39.52375 -81.20253 35858 ft 472 kts 235°
2026-05-05 02:54 39.48445 -81.27031 35856 ft 472 kts 236°
2026-05-05 02:55 39.44486 -81.33868 35865 ft 473 kts 236°
2026-05-05 02:55 39.42531 -81.37249 36102 ft 473 kts 236°
2026-05-05 02:55 39.40563 -81.40651 35690 ft 473 kts 236°
2026-05-05 02:55 39.38592 -81.44065 35936 ft 473 kts 236°
2026-05-05 02:56 39.36634 -81.47458 35856 ft 472 kts 236°
2026-05-05 02:56 39.32722 -81.54237 35868 ft 471 kts 236°
2026-05-05 02:57 39.28786 -81.61011 35864 ft 472 kts 235°
2026-05-05 02:57 39.24735 -81.67730 35858 ft 472 kts 234°
2026-05-05 02:58 39.20725 -81.74405 35859 ft 472 kts 234°
2026-05-05 02:58 39.16732 -81.81076 35862 ft 473 kts 234°
2026-05-05 02:59 39.12706 -81.87812 35865 ft 473 kts 235°
2026-05-05 02:59 39.08716 -81.94499 35858 ft 473 kts 235°
2026-05-05 03:00 39.04729 -82.01182 35855 ft 472 kts 235°
2026-05-05 03:00 39.00745 -82.07867 35851 ft 472 kts 235°
2026-05-05 03:01 38.96739 -82.14595 35852 ft 472 kts 235°
2026-05-05 03:01 38.92729 -82.21341 35838 ft 473 kts 235°
2026-05-05 03:02 38.88736 -82.28057 35853 ft 473 kts 236°
2026-05-05 03:02 38.84769 -82.34743 35861 ft 471 kts 236°
2026-05-05 03:03 38.80804 -82.41428 35867 ft 470 kts 236°
2026-05-05 03:03 38.76808 -82.48049 35782 ft 469 kts 235°
2026-05-05 03:04 38.72738 -82.54627 35872 ft 471 kts 235°
2026-05-05 03:04 38.68703 -82.61185 35881 ft 471 kts 235°
2026-05-05 03:05 38.64664 -82.67760 35882 ft 471 kts 234°
2026-05-05 03:05 38.60606 -82.74377 35881 ft 470 kts 235°
2026-05-05 03:06 38.56586 -82.80938 35886 ft 470 kts 235°
2026-05-05 03:06 38.52530 -82.87563 35872 ft 471 kts 235°
2026-05-05 03:07 38.48498 -82.94163 35872 ft 472 kts 235°
2026-05-05 03:07 38.44468 -83.00754 35866 ft 472 kts 236°
2026-05-05 03:08 38.40454 -83.07338 35858 ft 471 kts 236°
2026-05-05 03:08 38.37089 -83.14441 35866 ft 466 kts 249°
2026-05-05 03:09 38.34913 -83.22186 35870 ft 465 kts 253°
2026-05-05 03:09 38.32626 -83.29874 35873 ft 465 kts 250°
2026-05-05 03:10 38.30088 -83.37478 35882 ft 465 kts 249°
2026-05-05 03:10 38.27507 -83.44983 35885 ft 464 kts 249°
2026-05-05 03:11 38.24895 -83.52511 35896 ft 464 kts 249°
2026-05-05 03:11 38.22293 -83.60017 35895 ft 464 kts 249°
2026-05-05 03:12 38.19698 -83.67511 35898 ft 464 kts 249°
2026-05-05 03:12 38.17113 -83.74995 35890 ft 464 kts 249°
2026-05-05 03:13 38.14521 -83.82528 35887 ft 464 kts 249°
2026-05-05 03:13 38.11942 -83.90040 35890 ft 465 kts 249°
2026-05-05 03:14 38.09357 -83.97555 35898 ft 465 kts 249°
2026-05-05 03:14 38.06770 -84.05084 35902 ft 465 kts 249°
2026-05-05 03:15 38.04293 -84.12022 35902 ft 465 kts 248°
2026-05-05 03:15 38.01581 -84.19472 35898 ft 464 kts 249°
2026-05-05 03:16 37.98902 -84.26884 35895 ft 463 kts 249°
2026-05-05 03:16 37.97417 -84.31010 35895 ft 463 kts 249°
2026-05-05 03:17 37.94736 -84.38462 35891 ft 464 kts 249°
2026-05-05 03:17 37.92057 -84.45919 35887 ft 463 kts 249°
2026-05-05 03:18 37.89401 -84.53328 35891 ft 463 kts 250°
2026-05-05 03:18 37.86760 -84.60714 35895 ft 463 kts 250°
2026-05-05 03:19 37.82786 -84.71847 35895 ft 463 kts 249°
2026-05-05 03:19 37.80169 -84.79195 35892 ft 462 kts 250°
2026-05-05 03:20 37.77538 -84.86597 35894 ft 461 kts 250°
2026-05-05 03:20 37.74908 -84.94007 35888 ft 461 kts 250°
2026-05-05 03:21 37.72299 -85.01368 35899 ft 461 kts 250°
2026-05-05 03:21 37.69584 -85.08712 35906 ft 462 kts 249°
2026-05-05 03:22 37.66855 -85.15990 35903 ft 461 kts 249°
2026-05-05 03:22 37.64137 -85.23289 35896 ft 461 kts 249°
2026-05-05 03:23 37.61406 -85.30639 35890 ft 461 kts 249°
2026-05-05 03:23 37.58694 -85.37949 35899 ft 460 kts 250°
2026-05-05 03:24 37.56002 -85.45225 35890 ft 460 kts 250°
2026-05-05 03:24 37.53315 -85.52498 35891 ft 459 kts 250°
2026-05-05 03:25 37.50608 -85.59833 35898 ft 459 kts 250°
2026-05-05 03:25 37.47921 -85.67130 35902 ft 459 kts 249°
2026-05-05 03:26 37.45245 -85.74402 35893 ft 458 kts 250°
2026-05-05 03:26 37.42580 -85.81664 35881 ft 458 kts 250°
2026-05-05 03:27 37.39918 -85.88944 35882 ft 457 kts 250°
2026-05-05 03:27 37.37291 -85.96188 35881 ft 457 kts 250°
2026-05-05 03:28 37.34554 -86.03406 35875 ft 457 kts 249°
2026-05-05 03:28 37.31767 -86.10638 35880 ft 457 kts 249°
2026-05-05 03:29 37.29018 -86.17796 35881 ft 457 kts 249°
2026-05-05 03:29 37.26271 -86.24972 35893 ft 456 kts 249°
2026-05-05 03:30 37.23531 -86.32143 35899 ft 456 kts 250°
2026-05-05 03:30 37.20795 -86.39315 35898 ft 456 kts 250°
2026-05-05 03:31 37.18063 -86.46497 35891 ft 455 kts 250°
2026-05-05 03:31 37.15350 -86.53638 35893 ft 455 kts 250°
2026-05-05 03:32 37.12634 -86.60817 35893 ft 454 kts 250°
2026-05-05 03:32 37.09953 -86.67947 35885 ft 454 kts 250°
2026-05-05 03:33 37.07252 -86.75132 35891 ft 453 kts 250°
2026-05-05 03:33 37.04573 -86.82222 35889 ft 452 kts 250°
2026-05-05 03:34 37.01893 -86.89337 35893 ft 452 kts 250°
2026-05-05 03:34 36.99103 -86.96405 35888 ft 455 kts 248°
2026-05-05 03:35 36.96229 -87.03476 35867 ft 455 kts 249°
2026-05-05 03:35 36.93411 -87.10554 35888 ft 455 kts 249°
2026-05-05 03:36 36.90625 -87.17593 35875 ft 454 kts 250°
2026-05-05 03:36 36.87825 -87.24702 35885 ft 453 kts 250°
2026-05-05 03:37 36.85066 -87.31718 35851 ft 453 kts 250°
2026-05-05 03:37 36.82288 -87.38784 35849 ft 452 kts 251°
2026-05-05 03:38 36.79526 -87.45824 35899 ft 452 kts 251°
2026-05-05 03:38 36.76777 -87.52841 35868 ft 450 kts 251°
2026-05-05 03:39 36.75400 -87.56351 36176 ft 451 kts 251°
2026-05-05 03:39 36.74023 -87.59879 35649 ft 449 kts 251°
2026-05-05 03:39 36.72659 -87.63374 35888 ft 449 kts 251°
2026-05-05 03:39 36.71292 -87.66875 35899 ft 449 kts 251°
2026-05-05 03:40 36.68579 -87.73837 35875 ft 449 kts 251°
2026-05-05 03:40 36.65859 -87.80817 35902 ft 449 kts 251°
2026-05-05 03:41 36.63110 -87.87793 35882 ft 450 kts 250°
2026-05-05 03:41 36.60247 -87.94760 35895 ft 450 kts 250°
2026-05-05 03:42 36.57418 -88.01696 35884 ft 450 kts 251°
2026-05-05 03:42 36.54596 -88.08638 35877 ft 449 kts 251°
2026-05-05 03:43 36.51798 -88.15537 35884 ft 447 kts 251°
2026-05-05 03:43 36.49004 -88.22427 35892 ft 448 kts 252°
2026-05-05 03:44 36.46196 -88.29364 35885 ft 447 kts 252°
2026-05-05 03:44 36.43415 -88.36252 35895 ft 446 kts 252°
2026-05-05 03:45 36.40628 -88.43155 35886 ft 444 kts 252°
2026-05-05 03:45 36.37864 -88.50035 35883 ft 446 kts 253°
2026-05-05 03:46 36.35096 -88.56907 35891 ft 445 kts 253°
2026-05-05 03:46 36.32333 -88.63792 35890 ft 444 kts 253°
2026-05-05 03:47 36.29586 -88.70644 35877 ft 442 kts 252°
2026-05-05 03:47 36.26851 -88.77460 35880 ft 442 kts 252°
2026-05-05 03:48 36.24013 -88.84229 35870 ft 441 kts 252°
2026-05-05 03:48 36.21172 -88.90975 35888 ft 441 kts 253°
2026-05-05 03:49 36.18365 -88.97678 35896 ft 441 kts 253°
2026-05-05 03:49 36.15546 -89.04457 35897 ft 443 kts 253°
2026-05-05 03:50 36.12730 -89.11183 35895 ft 440 kts 253°
2026-05-05 03:50 36.09906 -89.17978 35881 ft 441 kts 254°
2026-05-05 03:51 36.07123 -89.24685 35901 ft 440 kts 254°
2026-05-05 03:51 36.04319 -89.31410 35884 ft 439 kts 255°
2026-05-05 03:52 36.01553 -89.38087 35881 ft 436 kts 255°
2026-05-05 03:52 35.98806 -89.44721 35884 ft 436 kts 255°
2026-05-05 03:53 35.96050 -89.51394 35872 ft 437 kts 255°
2026-05-05 03:53 35.93309 -89.58023 35874 ft 432 kts 255°
2026-05-05 03:54 35.90593 -89.64593 35878 ft 431 kts 255°
2026-05-05 03:54 35.87829 -89.71231 35874 ft 434 kts 254°
2026-05-05 03:55 35.84981 -89.77804 35872 ft 434 kts 253°
2026-05-05 03:55 35.82154 -89.84354 35886 ft 434 kts 254°
2026-05-05 03:56 35.79341 -89.90903 35868 ft 435 kts 254°
2026-05-05 03:56 35.76524 -89.97465 35881 ft 433 kts 254°
2026-05-05 03:57 35.73706 -90.04034 35848 ft 431 kts 255°
2026-05-05 03:57 35.70922 -90.10546 35875 ft 432 kts 255°
2026-05-05 03:58 35.68136 -90.17062 35877 ft 429 kts 255°
2026-05-05 03:58 35.65386 -90.23495 35858 ft 428 kts 255°
2026-05-05 03:59 35.62620 -90.30003 35866 ft 430 kts 255°
2026-05-05 03:59 35.59865 -90.36470 35873 ft 429 kts 255°
2026-05-05 04:00 35.57109 -90.42937 35855 ft 426 kts 255°
2026-05-05 04:00 35.54369 -90.49415 35858 ft 427 kts 255°
2026-05-05 04:01 35.51646 -90.55814 35855 ft 425 kts 255°
2026-05-05 04:01 35.48891 -90.62233 35854 ft 428 kts 254°
2026-05-05 04:02 35.46025 -90.68675 35858 ft 429 kts 254°
2026-05-05 04:02 35.43167 -90.75124 35868 ft 429 kts 253°
2026-05-05 04:03 35.40326 -90.81548 35877 ft 429 kts 254°
2026-05-05 04:03 35.37490 -90.87981 35880 ft 430 kts 254°
2026-05-05 04:04 35.34667 -90.94392 35877 ft 427 kts 254°
2026-05-05 04:04 35.31856 -91.00788 35873 ft 428 kts 254°
2026-05-05 04:05 35.29013 -91.07267 35869 ft 429 kts 254°
2026-05-05 04:05 35.26181 -91.13734 35874 ft 432 kts 254°
2026-05-05 04:06 35.23357 -91.20183 35862 ft 430 kts 254°
2026-05-05 04:06 35.20541 -91.26611 35850 ft 430 kts 254°
2026-05-05 04:07 35.17733 -91.33045 35866 ft 429 kts 254°
2026-05-05 04:07 35.14917 -91.39491 35859 ft 431 kts 255°
2026-05-05 04:08 35.12115 -91.45926 35862 ft 429 kts 254°
2026-05-05 04:08 35.09254 -91.52383 35851 ft 430 kts 253°
2026-05-05 04:09 35.06316 -91.58857 35868 ft 430 kts 254°
2026-05-05 04:09 35.03416 -91.65286 35865 ft 431 kts 253°
2026-05-05 04:10 35.00509 -91.71738 35862 ft 430 kts 253°
2026-05-05 04:10 34.97592 -91.78213 35861 ft 430 kts 253°
2026-05-05 04:11 34.94707 -91.84634 35870 ft 433 kts 254°
2026-05-05 04:11 34.91828 -91.91052 35867 ft 433 kts 253°
2026-05-05 04:12 34.88943 -91.97487 35863 ft 431 kts 253°
2026-05-05 04:12 34.86056 -92.03933 35870 ft 430 kts 254°
2026-05-05 04:13 34.83200 -92.10319 35878 ft 430 kts 254°
2026-05-05 04:13 34.80355 -92.16709 35851 ft 427 kts 255°
2026-05-05 04:14 34.78090 -92.23226 35862 ft 420 kts 260°
2026-05-05 04:14 34.75879 -92.29816 35856 ft 420 kts 259°
2026-05-05 04:15 34.73633 -92.36330 35860 ft 419 kts 258°
2026-05-05 04:15 34.71359 -92.42870 35860 ft 419 kts 259°
2026-05-05 04:16 34.69091 -92.49398 35862 ft 421 kts 258°
2026-05-05 04:16 34.66833 -92.55899 35854 ft 420 kts 258°
2026-05-05 04:17 34.64556 -92.62454 35854 ft 420 kts 259°
2026-05-05 04:17 34.62296 -92.68974 35856 ft 421 kts 258°
2026-05-05 04:18 34.60042 -92.75499 35846 ft 420 kts 258°
2026-05-05 04:18 34.57803 -92.81986 35855 ft 420 kts 258°
2026-05-05 04:19 34.55537 -92.88563 35840 ft 421 kts 258°
2026-05-05 04:19 34.53305 -92.95051 35851 ft 419 kts 258°
2026-05-05 04:20 34.51052 -93.01607 35845 ft 421 kts 258°
2026-05-05 04:20 34.48809 -93.08147 35854 ft 420 kts 258°
2026-05-05 04:21 34.46486 -93.14668 35854 ft 420 kts 257°
2026-05-05 04:21 34.44162 -93.21114 35857 ft 417 kts 258°
2026-05-05 04:22 34.41839 -93.27580 35846 ft 415 kts 257°
2026-05-05 04:22 34.39549 -93.33978 35853 ft 413 kts 258°
2026-05-05 04:23 34.37270 -93.40353 35844 ft 414 kts 258°
2026-05-05 04:23 34.34978 -93.46789 35856 ft 415 kts 258°
2026-05-05 04:24 34.32697 -93.53192 35844 ft 415 kts 258°
2026-05-05 04:25 34.29296 -93.62770 35842 ft 414 kts 258°
2026-05-05 04:25 34.27020 -93.69202 35838 ft 414 kts 258°
2026-05-05 04:26 34.24772 -93.75588 35836 ft 414 kts 257°
2026-05-05 04:26 34.22540 -93.81969 35833 ft 413 kts 257°
2026-05-05 04:27 34.20283 -93.88345 35841 ft 415 kts 257°
2026-05-05 04:27 34.18149 -93.94788 35833 ft 411 kts 259°
2026-05-05 04:28 34.16128 -94.01239 35832 ft 410 kts 259°
2026-05-05 04:28 34.14111 -94.07679 35825 ft 410 kts 259°
2026-05-05 04:29 34.12109 -94.14084 35828 ft 409 kts 259°
2026-05-05 04:29 34.10110 -94.20508 35832 ft 409 kts 259°
2026-05-05 04:30 34.08099 -94.26965 35822 ft 410 kts 259°
2026-05-05 04:30 34.06101 -94.33400 35832 ft 410 kts 260°
2026-05-05 04:31 34.04110 -94.39818 35832 ft 409 kts 260°
2026-05-05 04:31 34.02119 -94.46259 35835 ft 409 kts 260°
2026-05-05 04:32 34.00142 -94.52660 35827 ft 409 kts 260°
2026-05-05 04:32 33.98160 -94.59078 35815 ft 409 kts 260°
2026-05-05 04:33 33.96177 -94.65512 35820 ft 409 kts 259°
2026-05-05 04:33 33.94215 -94.71907 35821 ft 410 kts 259°
2026-05-05 04:34 33.92234 -94.78338 35813 ft 409 kts 259°
2026-05-05 04:34 33.90265 -94.84765 35819 ft 409 kts 260°
2026-05-05 04:35 33.88251 -94.91174 35814 ft 411 kts 258°
2026-05-05 04:35 33.86216 -94.97581 35593 ft 409 kts 258°
2026-05-05 04:35 33.85216 -95.00740 34959 ft 405 kts 258°
2026-05-05 04:36 33.84202 -95.03913 34311 ft 400 kts 259°
2026-05-05 04:36 33.83217 -95.07017 33657 ft 395 kts 258°
2026-05-05 04:36 33.82620 -95.08926 33243 ft 393 kts 259°
2026-05-05 04:36 33.81657 -95.11972 32639 ft 393 kts 258°
2026-05-05 04:37 33.80678 -95.15080 31691 ft 399 kts 258°
2026-05-05 04:37 33.79698 -95.18191 31018 ft 402 kts 258°
2026-05-05 04:37 33.78693 -95.21348 30194 ft 408 kts 257°
2026-05-05 04:37 33.77679 -95.24528 29364 ft 412 kts 257°
2026-05-05 04:38 33.76657 -95.27749 28669 ft 417 kts 256°
2026-05-05 04:38 33.75623 -95.30984 27781 ft 421 kts 256°
2026-05-05 04:38 33.74571 -95.34291 27157 ft 426 kts 255°
2026-05-05 04:38 33.73485 -95.37642 26880 ft 434 kts 256°
2026-05-05 04:39 33.72377 -95.41044 26835 ft 441 kts 255°
2026-05-05 04:39 33.71263 -95.44489 26831 ft 434 kts 255°
2026-05-05 04:39 33.70187 -95.47788 26794 ft 419 kts 255°
2026-05-05 04:39 33.69145 -95.50996 26806 ft 407 kts 256°
2026-05-05 04:40 33.68132 -95.54128 26500 ft 402 kts 256°
2026-05-05 04:40 33.67116 -95.57255 25972 ft 397 kts 256°
2026-05-05 04:40 33.66125 -95.60305 25587 ft 389 kts 256°
2026-05-05 04:40 33.65149 -95.63292 25474 ft 380 kts 255°
2026-05-05 04:41 33.64202 -95.66202 25231 ft 374 kts 255°
2026-05-05 04:41 33.63264 -95.69089 24910 ft 370 kts 255°
2026-05-05 04:41 33.62328 -95.71968 24552 ft 367 kts 255°
2026-05-05 04:41 33.61396 -95.74781 24065 ft 365 kts 255°
2026-05-05 04:42 33.60458 -95.77625 23577 ft 362 kts 254°
2026-05-05 04:42 33.59537 -95.80407 23078 ft 361 kts 254°
2026-05-05 04:42 33.58618 -95.83186 22578 ft 359 kts 254°
2026-05-05 04:42 33.57694 -95.86005 22049 ft 358 kts 254°
2026-05-05 04:43 33.56792 -95.88742 21523 ft 356 kts 253°
2026-05-05 04:43 33.55875 -95.91524 20974 ft 355 kts 253°
2026-05-05 04:43 33.54974 -95.94260 20444 ft 353 kts 253°
2026-05-05 04:43 33.54077 -95.96989 19913 ft 353 kts 252°
2026-05-05 04:44 33.53180 -95.99719 19377 ft 352 kts 252°
2026-05-05 04:44 33.52285 -96.02444 18836 ft 351 kts 252°
2026-05-05 04:44 33.51397 -96.05145 18284 ft 350 kts 251°
2026-05-05 04:44 33.50502 -96.07872 17735 ft 349 kts 251°
2026-05-05 04:45 33.49609 -96.10590 17181 ft 349 kts 251°
2026-05-05 04:45 33.48723 -96.13281 16620 ft 347 kts 251°
2026-05-05 04:45 33.47845 -96.15962 16068 ft 345 kts 251°
2026-05-05 04:45 33.46981 -96.18600 15534 ft 342 kts 251°
2026-05-05 04:46 33.46110 -96.21259 15008 ft 339 kts 251°
2026-05-05 04:46 33.45236 -96.23853 14592 ft 332 kts 248°
2026-05-05 04:46 33.44161 -96.26251 14455 ft 326 kts 241°
2026-05-05 04:46 33.42793 -96.28435 13983 ft 325 kts 233°
2026-05-05 04:47 33.41313 -96.30444 13538 ft 321 kts 232°
2026-05-05 04:47 33.39843 -96.32420 13099 ft 315 kts 232°
2026-05-05 04:47 33.38397 -96.34387 12700 ft 309 kts 232°
2026-05-05 04:47 33.36984 -96.36321 12322 ft 307 kts 233°
2026-05-05 04:48 33.35598 -96.38226 11897 ft 305 kts 233°
2026-05-05 04:48 33.34220 -96.40118 11575 ft 297 kts 233°
2026-05-05 04:48 33.32978 -96.42059 11513 ft 286 kts 242°
2026-05-05 04:48 33.32078 -96.44121 11232 ft 280 kts 251°
2026-05-05 04:49 33.31455 -96.46326 10851 ft 274 kts 255°
2026-05-05 04:49 33.30893 -96.48453 10500 ft 268 kts 254°
2026-05-05 04:49 33.30323 -96.50554 10204 ft 263 kts 254°
2026-05-05 04:49 33.29750 -96.52625 9922 ft 259 kts 253°
2026-05-05 04:50 33.29194 -96.54652 9618 ft 256 kts 255°
2026-05-05 04:50 33.28774 -96.56683 9289 ft 252 kts 261°
2026-05-05 04:50 33.28588 -96.58763 9050 ft 252 kts 267°
2026-05-05 04:50 33.28498 -96.60855 8788 ft 252 kts 267°
2026-05-05 04:51 33.28407 -96.62953 8517 ft 251 kts 267°
2026-05-05 04:51 33.28312 -96.65041 8261 ft 249 kts 266°
2026-05-05 04:51 33.28218 -96.67086 8022 ft 242 kts 266°
2026-05-05 04:51 33.28125 -96.69074 7811 ft 234 kts 266°
2026-05-05 04:52 33.28037 -96.70972 7612 ft 225 kts 266°
2026-05-05 04:52 33.27952 -96.72793 7415 ft 220 kts 266°
2026-05-05 04:52 33.27866 -96.74614 7202 ft 220 kts 266°
2026-05-05 04:52 33.27782 -96.76457 6976 ft 221 kts 265°
2026-05-05 04:53 33.27696 -96.78292 6750 ft 221 kts 265°
2026-05-05 04:53 33.27615 -96.80093 6522 ft 220 kts 265°
2026-05-05 04:53 33.27529 -96.81935 6281 ft 219 kts 265°
2026-05-05 04:53 33.27446 -96.83746 6031 ft 219 kts 265°
2026-05-05 04:54 33.27165 -96.85503 5996 ft 218 kts 249°
2026-05-05 04:54 33.26505 -96.87133 5988 ft 220 kts 240°
2026-05-05 04:54 33.25689 -96.88679 5971 ft 219 kts 242°
2026-05-05 04:54 33.24974 -96.90314 5977 ft 220 kts 244°
2026-05-05 04:55 33.24307 -96.91935 5968 ft 219 kts 244°
2026-05-05 04:55 33.23621 -96.93574 5966 ft 219 kts 244°
2026-05-05 04:55 33.22941 -96.95185 5962 ft 218 kts 244°
2026-05-05 04:55 33.22252 -96.96809 5969 ft 217 kts 244°
2026-05-05 04:56 33.21566 -96.98431 5974 ft 217 kts 244°
2026-05-05 04:56 33.20889 -97.00022 5977 ft 217 kts 244°
2026-05-05 04:56 33.20082 -97.01560 5971 ft 218 kts 224°
2026-05-05 04:56 33.18749 -97.02412 5721 ft 232 kts 195°
2026-05-05 04:57 33.17086 -97.02544 5174 ft 240 kts 185°
2026-05-05 04:57 33.15465 -97.02512 5023 ft 228 kts 185°
2026-05-05 04:57 33.13889 -97.02494 4876 ft 223 kts 186°
2026-05-05 04:57 33.12368 -97.02492 4551 ft 216 kts 186°
2026-05-05 04:58 33.10909 -97.02493 4296 ft 202 kts 186°
2026-05-05 04:58 33.09532 -97.02499 4097 ft 191 kts 186°
2026-05-05 04:58 33.08228 -97.02528 3934 ft 189 kts 187°
2026-05-05 04:58 33.06921 -97.02540 3529 ft 189 kts 186°
2026-05-05 04:59 33.05618 -97.02538 3275 ft 184 kts 186°
2026-05-05 04:59 33.04335 -97.02538 3013 ft 182 kts 186°
2026-05-05 04:59 33.03077 -97.02544 2787 ft 180 kts 185°
2026-05-05 04:59 33.01814 -97.02556 2572 ft 182 kts 184°
2026-05-05 05:00 33.00532 -97.02563 2323 ft 184 kts 183°
2026-05-05 05:00 32.99300 -97.02567 2071 ft 167 kts 183°
2026-05-05 05:00 32.98206 -97.02568 1860 ft 149 kts 182°
2026-05-05 05:00 32.97217 -97.02573 1710 ft 140 kts 183°
2026-05-05 05:01 32.96243 -97.02590 1482 ft 137 kts 181°
2026-05-05 05:01 32.95286 -97.02574 1379 ft 139 kts 179°
2026-05-05 05:01 32.94281 -97.02573 1146 ft 143 kts 182°
2026-05-05 05:01 32.93301 -97.02583 939 ft 143 kts 181°
2026-05-05 05:02 32.92316 -97.02595 764 ft 140 kts 180°
2026-05-05 05:02 32.91346 -97.02600 636 ft 132 kts 178°
2026-05-05 05:02 32.90564 -97.02602 616 ft 85 kts 180°
2026-05-05 05:02 32.90130 -97.02606 616 ft 43 kts 184°
2026-05-05 05:03 32.89904 -97.02708 616 ft 27 kts 209°
2026-05-05 05:03 32.89768 -97.02792 616 ft 8 kts 222°
2026-05-05 05:03 32.89749 -97.02878 616 ft 18 kts 266°
2026-05-05 05:03 32.89753 -97.03065 616 ft 24 kts 270°
2026-05-05 05:04 32.89759 -97.03178 616 ft 2 kts 305°
2026-05-05 05:04 32.89796 -97.03194 616 ft 11 kts 356°
2026-05-05 05:04 32.89902 -97.03191 616 ft 17 kts
2026-05-05 05:04 32.90029 -97.03188 616 ft 19 kts
2026-05-05 05:05 32.90109 -97.03233 616 ft 14 kts 289°
2026-05-05 05:05 32.90112 -97.03337 616 ft 14 kts 266°
2026-05-05 05:05 32.90110 -97.03427 616 ft 13 kts 270°
2026-05-05 05:05 32.90122 -97.03517 616 ft 14 kts 302°
2026-05-05 05:06 32.90163 -97.03542 616 ft 1 kts 338°
2026-05-05 05:06 32.90172 -97.03552 616 ft 4 kts 318°
2026-05-05 05:06 32.90197 -97.03577 616 ft 6 kts 321°
2026-05-05 05:06 32.90212 -97.03590 616 ft 0 kts 322°